Weather History for Juliana Airport, Saint Maarten, Saint Maartin

Change the Weather History Date:

Monday, March 24, 2014

  Actual Average Record
Temperature  
Mean Temperature 79 °F -  
Max Temperature 84 °F 83 °F - ()
Min Temperature 74 °F 74 °F - ()
Cooling Degree Days 14    
Growing Degree Days 29 (Base 50)    
Moisture  
Dew Point 69 °F    
Average Humidity 68    
Maximum Humidity 78    
Minimum Humidity 55    
Precipitation  
Precipitation 0.00 in 0.08 in - ()
Sea Level Pressure  
Sea Level Pressure 30.00 in    
Wind  
Wind Speed 3 mph ()    
Max Wind Speed 6 mph    
Max Gust Speed -    
Visibility 7.2 miles    
Events      
T = Trace of Precipitation, MM = Missing Value Source: Averaged Metar Reports

Daily Weather History Graph

Daily Weather History Graph

Search for Another Location

Airport:

Trip Planner

Search our weather history database for the weather conditions in past years. The results will help you decide how hot, cold, wet, or windy it might be!

Date:

Astronomy

Mar. 24, 2014 Rise Set
Actual Time 6:13 AM AST 6:24 PM AST
Civil Twilight 5:51 AM AST 6:46 PM AST
Nautical Twilight 5:26 AM AST 7:11 PM AST
Astronomical Twilight 5:00 AM AST 7:36 PM AST
Moon 12:53 AM AST (3/24) 12:29 PM AST (3/24)
Length of Visible Light 12h 54m
Length of Day
12h 10m
Last Quarter, 43% of the Moon is Illuminated
Mar 24
Last Quarter
Mar 30
New
Apr 7
First Quarter
Apr 15
Full
Apr 22
Last Quarter

Hourly Weather History & Observations

Time (AST) Temp. Heat Index Dew Point Humidity Pressure Visibility Wind Dir Wind Speed Gust Speed Precip Events Conditions
12:00 AM 77.0 °F - 68.0 °F 74% 30.04 in 6.2 mi ENE 3.5 mph - N/A   Partly Cloudy
1:00 AM 77.0 °F - 69.8 °F 78% 30.01 in 6.2 mi NE 4.6 mph - N/A   Partly Cloudy
2:00 AM 76 °F - 68 °F 70% 30.01 in 19 mi East 3.5 mph - -   Scattered Clouds
2:32 AM 77.0 °F - 68.0 °F 74% 30.01 in 6.2 mi East 3.5 mph - N/A   Partly Cloudy
3:00 AM 75.2 °F - 68.0 °F 78% 30.01 in 6.2 mi Variable 2.3 mph - N/A   Partly Cloudy
4:00 AM 75.2 °F - 68.0 °F 78% 29.98 in 6.2 mi Variable 2.3 mph - N/A   Partly Cloudy
5:00 AM 76 °F - 68 °F 70% 30.01 in 19 mi East 3.5 mph - -   Scattered Clouds
5:00 AM 75.2 °F - 68.0 °F 78% 30.01 in 6.2 mi East 3.5 mph - N/A   Partly Cloudy
6:00 AM 75.2 °F - 68.0 °F 78% 30.01 in 6.2 mi Variable 2.3 mph - N/A   Partly Cloudy
7:00 AM 77.0 °F - 68.0 °F 74% 30.04 in 6.2 mi East 4.6 mph - N/A   Partly Cloudy
8:00 AM 79 °F - 69 °F 65% 30.05 in 28 mi 3.5 mph - -   Scattered Clouds
8:00 AM 78.8 °F - 69.8 °F 74% 30.04 in 6.2 mi Variable 3.5 mph - N/A   Partly Cloudy
9:00 AM 80.6 °F 83.9 °F 69.8 °F 70% 30.04 in 6.2 mi SE 4.6 mph - N/A   Scattered Clouds
10:00 AM 80.6 °F 83.9 °F 69.8 °F 70% 30.04 in 6.2 mi SSE 5.8 mph - N/A   Scattered Clouds
11:00 AM 82 °F - 69 °F 56% 30.04 in 22 mi SSE 5.8 mph - -   Partly Cloudy
11:00 AM 82.4 °F 86.3 °F 69.8 °F 66% 30.04 in 6.2 mi SSE 5.8 mph - N/A   Scattered Clouds
12:00 PM 82.4 °F 85.4 °F 68.0 °F 62% 30.01 in 6.2 mi SSE 5.8 mph - N/A   Scattered Clouds
1:00 PM 82.4 °F 86.3 °F 69.8 °F 66% 29.98 in 6.2 mi South 4.6 mph - N/A   Scattered Clouds
2:00 PM 83 °F - 69 °F 55% 29.98 in 28 mi SSE 3.5 mph - -   Scattered Clouds
2:00 PM 84.2 °F 88.4 °F 69.8 °F 62% 29.98 in 6.2 mi SSE 3.5 mph - N/A   Partly Cloudy
3:00 PM 84.2 °F 88.4 °F 69.8 °F 62% 29.95 in 6.2 mi South 3.5 mph - N/A   Partly Cloudy
4:00 PM 82.4 °F 86.3 °F 69.8 °F 66% 29.92 in 6.2 mi South 3.5 mph - N/A   Partly Cloudy
5:00 PM 82 °F - 69 °F 56% 29.95 in 28 mi 1.2 mph - -   Scattered Clouds
5:00 PM 82.4 °F 85.4 °F 68.0 °F 62% 29.95 in 6.2 mi Variable 1.2 mph - N/A   Partly Cloudy
6:00 PM 80.6 °F 83.2 °F 68.0 °F 65% 29.95 in 6.2 mi Variable 1.2 mph - N/A   Partly Cloudy
7:00 PM 78.8 °F - 68.0 °F 69% 29.98 in 6.2 mi Variable 1.2 mph - N/A   Partly Cloudy
8:00 PM 79 °F - 69 °F 63% 30.01 in 28 mi 2.3 mph - -   Mostly Cloudy
8:00 PM 78.8 °F - 68.0 °F 69% 30.01 in 6.2 mi Variable 1.2 mph - N/A   Mostly Cloudy
9:00 PM 78.8 °F - 68.0 °F 69% 30.01 in 6.2 mi Variable 1.2 mph - N/A   Mostly Cloudy
10:00 PM 78.8 °F - 68.0 °F 69% 30.01 in 6.2 mi East 4.6 mph - N/A   Partly Cloudy
11:00 PM 78 °F - 69 °F 66% 30.03 in 22 mi 3.5 mph - -   Scattered Clouds
11:00 PM 77.0 °F - 68.0 °F 74% 30.01 in 6.2 mi Variable 3.5 mph - N/A   Partly Cloudy